Чаек

Киргизия     41°55′38″N   74°31′03″E
темп.,
°C
ветер,
м/с
пор.,
м/с
влажн.,
%
обл.,
%
осадки,
мм/ч
давл.,
гПа
погр.,
м
9 мая, вс
вс900:00+12с225491 0.9 101782
03:00+11с225827 0.1 101717
06:00+9ссз11655 0.1 101610
09:00+13ююз124993 0.0 1016814
12:00+17ю233699 0.0 10132001
15:00+20ююз552544 0.1 10092969
18:00+20юз432527 0.1 10082660
21:00+15зюз4646100 0.1 1012293
10 мая, пн
пн1000:00+12зсз335591 0.1 1014157
03:00+10зсз1160100 0.0 101424
06:00+10в116655 0.0 101476
09:00+13ю115941 0.0 1013694
12:00+17ю234015 0.2 10101629
15:00+20ююз472853 0.6 10052888
18:00+20юз5728100 0.7 10042546
21:00+15зсз344699 0.1 1008121
11 мая, вт
вт1100:00+12ссз225798 0.3 1010299
03:00+10зсз2272100 1.4 1011382
06:00+7с1186100 13.4 1014345
09:00+6ююз2290100 6.8 1016391
12:00+7юв1184100 7.1 1015417
15:00+10ююз1172100 0.4 1014563
18:00+11юз2268100 2.1 1013257
21:00+9ююз2379100 2.1 1016208
12 мая, ср
ср1200:00+7вюв228198 3.0 1016260
03:00+6ююв1191100 1.7 1016236
06:00+5всв0192100 5.1 1017261
09:00+4юз2193100 5.9 1019328
12:00+4юв2190100 8.9 1019422
15:00+9ююв226548 0.3 1015795
18:00+12зюз124589 0.8 10131227
21:00+7сз44622 0.1 101694
13 мая, чт
чт1300:00+6ссз226212 0.1 101751
03:00+4ссз11640 0.0 101612
06:00+4ссв11660 0.0 101610
09:00+7ююв11520 0.0 1015656
12:00+11ююв22392 0.0 10121504
15:00+14юв332948 0.0 10092200
18:00+14юз3427100 0.1 10082243
21:00+10з1252100 0.6 1013182